Weather in Novopokrovka

Russia / Tomsk District     56°19′20″N   83°51′48″E
В апреле 2022 года жителям России запретили посещать сайт meteo.paraplan.net по решению Генеральной прокуратуры. Аудитория сайта уменьшилась в 10 раз. Владельцы сайта не видят смысла в поддержке погодного сервера в таких условиях. Сайт будет закрыт в октябре.
temp.,
°C
wind,
m/s
gust,
m/s
humid.,
%
clouds,
%
prec.,
mm/h
press.,
hPa
HPBL,
m
4 october, tue
tue401:000ese11765 0.0 103610
04:00−1n007555 0.0 103510
07:00−1ene017550 0.0 103510
10:00+3sw115918 0.0 1035197
13:00+7wsw224648 0.0 1034783
16:00+8wsw3442100 0.0 10331036
19:00+5wsw3559100 0.0 103280
22:00+3sw387066 0.0 1032184
5 october, wed
wed501:00+4sw41065100 0.0 1030433
04:00+4sw51177100 0.4 1029600
07:00+4wsw5985100 0.4 1028532
10:00+4wsw5985100 0.0 1028447
13:00+5w51091100 0.1 1027601
16:00+6wnw4889100 0.0 1028707
19:00+6nnw2582100 0.2 1029140
22:00+5n2368100 0.0 103064
6 october, thu
thu601:00+5w2267100 0.0 103038
04:00+4wnw3585100 0.0 1030143
07:00+4wnw3685100 0.0 1030217
10:00+5nnw2473100 0.0 1031353
13:00+6nnw3456100 0.0 10311238
16:00+7n2451100 0.0 10311115
19:00+5e236074 0.0 103160
22:00+3se2270100 0.0 103220
7 october, fri
fri701:00+2sse237895 0.0 103230
04:00+1s338489 0.0 103241
07:00+1s3489100 0.0 103154
10:00+4sse357397 0.0 1031213
13:00+9s4565100 0.0 1029672
16:00+10s466890 0.0 1028790
19:00+7sse4783100 0.0 1027143
22:00+3sse498139 0.0 1028189
8 october, sat
sat801:00+3sse4885100 0.0 1027163
04:00+3sse4990100 0.0 1025197
07:00+3sse51190100 0.0 1023232
10:00+6sse51278100 0.0 1021369
13:00+9s61263100 0.0 1019507
16:00+11s71357100 0.0 1016627
19:00+10s61467100 0.0 1014463
22:00+8s51373100 0.0 1013311